Flag for Norway Weather past 2 weeks in Jan Mayen, Jan Mayen, Norway

Now
44 °F

Passing clouds.


Feels Like: 39 °F
Forecast: 36 / 39 °F
Wind: 9 mph from West

Location: Jan Mayen

Current Time: Apr 19, 2015 at 12:24:57 PM

Latest Report: Apr 19, 2015 at 11:00 AM


Visibility: 19 mi

Pressure: 30.14 "Hg

Humidity: 71%

Dew point: 35 °F

Location of Jan MayenLocation

Historic Weather in Jan Mayen — Graph

°F

Jan Mayen temperature yesterday

Maximum temperature yesterday: 41 °F (at 3:00 AM)
Minimum temperature yesterday: 35 °F (at 12:00 AM)
Average temperature yesterday: 39 °F

Past Weeks' High & Low Weather Summary

 TemperatureHumidityPressure
High44 °F (Apr 19, 11:00 AM)98% (Apr 11, 6:00 PM)30.15 "Hg (Apr 11, 6:00 PM)
Low17 °F (Apr 12, 6:00 PM)65% (Apr 18, 7:00 AM)28.79 "Hg (Apr 12, 8:00 AM)
Average30 °F86%29.47 "Hg
* Reported Apr 4 11:00 AM — Apr 19 11:00 AM, Jan Mayen, Weather by CustomWeather, © 2015

Note: Actual official high and low records may vary slightly from our data, if they occured in-between our weather recording intervals... More about our weather records

Advertising

Jan Mayen weather history for previous 24 hours

 ConditionsComfort  
Time TempWeatherWind HumidityBarometerVisibility
11:00 AM
Sun, Apr 19
44 °FPassing clouds.9 mph71%30.14 "Hg19 mi
10:00 AM42 °FQuite cool.9 mph79%30.14 "HgN/A
9:00 AM40 °FQuite cool.9 mph82%30.15 "HgN/A
8:00 AM39 °FPassing clouds.13 mph84%30.14 "Hg9 mi
7:00 AM40 °FQuite cool.9 mph81%30.14 "HgN/A
6:00 AM40 °FChilly.10 mph84%30.13 "HgN/A
5:00 AM40 °FChilly.13 mph84%30.13 "HgN/A
4:00 AM39 °FChilly.13 mph85%30.14 "HgN/A
3:00 AM37 °FChilly.18 mph89%30.12 "HgN/A
2:00 AM39 °FPassing clouds.17 mph84%30.11 "Hg6 mi
1:00 AM39 °FChilly.14 mph84%30.13 "HgN/A
12:00 AM37 °FChilly.16 mph90%30.12 "HgN/A
11:00 PM
Sat, Apr 18
38 °FChilly.17 mph86%30.10 "HgN/A
10:00 PM38 °FChilly.13 mph87%30.08 "HgN/A
9:00 PM38 °FChilly.13 mph86%30.06 "HgN/A
8:00 PM39 °FPartly sunny.18 mph81%30.04 "Hg9 mi
7:00 PM40 °FChilly.21 mph78%30.02 "HgN/A
6:00 PM40 °FQuite cool.22 mph74%29.99 "HgN/A
5:00 PM40 °FScattered clouds.21 mph74%29.99 "Hg9 mi
4:00 PM39 °FChilly.22 mph78%29.98 "HgN/A
3:00 PM38 °FChilly.21 mph79%29.96 "HgN/A
2:00 PM38 °FScattered clouds.23 mph76%29.95 "Hg9 mi
1:00 PM38 °FChilly.23 mph71%29.93 "HgN/A
Weather by CustomWeather, © 2015

See weather overviewHow to use our weather pages